Flag for Germany Weather past 2 weeks in Springe, Lower Saxony, Germany

Now
45 °F

Scattered clouds.


Feels Like: 41 °F
Forecast: 36 / 47 °F
Wind: 6 mph from Southwest

Location: Wunstorf Airport


UV Index: 0 (Low)

Visibility: N/A


Pressure: 30.27 "Hg

Humidity: 61%

Dew point: 32 °F

Location of SpringeLocation

Historic Weather in Springe

°F

Springe temperature yesterday

Maximum temperature yesterday: 55 °F (at 4:20 PM)
Minimum temperature yesterday: 30 °F (at 5:20 AM)
Average temperature yesterday: 44 °F

Past Weeks' High & Low Weather Summary

 TemperatureHumidityPressure
High72 °F (Apr 2, 5:20 PM)100% (Apr 5, 6:20 AM)30.48 "Hg (Apr 5, 6:20 AM)
Low30 °F (Apr 16, 5:20 AM)36% (Apr 2, 5:20 PM)29.62 "Hg (Apr 3, 4:20 PM)
Average50 °F77%30.00 "Hg
* Reported Apr 2 8:20 AM — Apr 17 8:20 AM, Springe, Weather by CustomWeather, © 2014

Note: Actual official high and low records may vary slightly from our data, if they occured in-between our weather recording intervals... More about our weather records

Advertising

Historic Weather Conditions — Data for Previous 24 hours

 ConditionsComfort  
Time TempWeatherWind HumidityBarometerVisibility
8:20 AM
Apr 17
45 °FScattered clouds.6 mph61%30.27 "HgN/A
7:20 AM41 °FPassing clouds.3 mph61%30.27 "HgN/A
6:20 AM36 °FPassing clouds.6 mph70%30.27 "HgN/A
5:20 AM37 °FPassing clouds.2 mph70%30.30 "HgN/A
4:20 AM39 °FChilly.3 mph65%30.30 "Hg3 mi
3:20 AM39 °FChilly.3 mph65%30.33 "Hg3 mi
2:20 AM39 °FChilly.5 mph70%30.33 "Hg3 mi
1:20 AM37 °FChilly.3 mph75%30.36 "Hg3 mi
12:20 AM41 °FQuite cool.5 mph70%30.36 "Hg3 mi
11:20 PM
Apr 16
43 °FQuite cool.3 mph66%30.36 "Hg3 mi
10:20 PM43 °FQuite cool.5 mph66%30.36 "Hg3 mi
9:20 PM46 °FCool.6 mph57%30.39 "Hg3 mi
8:20 PM48 °FCool.3 mph54%30.39 "Hg4 mi
7:20 PM54 °FScattered clouds.5 mph44%30.39 "HgN/A
6:20 PM55 °FPassing clouds.3 mph38%30.39 "HgN/A
5:20 PM54 °FScattered clouds.1 mph44%30.42 "HgN/A
4:20 PM55 °FScattered clouds.3 mph41%30.42 "HgN/A
3:20 PM54 °FScattered clouds.3 mph44%30.42 "HgN/A
2:20 PM54 °FScattered clouds.7 mph47%30.45 "HgN/A
1:20 PM54 °FPassing clouds.6 mph51%30.45 "HgN/A
12:20 PM52 °FPassing clouds.6 mph54%30.45 "HgN/A
11:20 AM50 °FPassing clouds.3 mph58%30.48 "HgN/A
10:20 AM46 °FPassing clouds.2 mph62%30.48 "HgN/A
9:20 AM41 °FPassing clouds.2 mph76%30.45 "HgN/A
Weather by CustomWeather, © 2014

See weather overview